Regional Weather Roundup
Issued by NWS

Home | Current Version | Previous Version | Text Only | Print | Product List | Glossary On
Versions: 1 2 3 4 5 6 7 8 9 10 11 12 13 14 15 16 17 18 19 20 21 22 23 24 25 26 27 28 29 30 31 32 33 34 35 36 37 38 39 40 41 42 43 44 45 46 47 48 49 50
000
ASUS43 KTOP 050208
RWRKS

WEATHER ROUNDUP FOR KANSAS
NATIONAL WEATHER SERVICE GOODLAND KS
900 PM CDT SAT JUL 04 2015

NOTE:  "FAIR" INDICATES FEW OR NO CLOUDS BELOW 12,000 FEET WITH NO
SIGNIFICANT WEATHER AND/OR OBSTRUCTIONS TO VISIBILITY.

KSZ001>006-013>018-027>032-041>047-050300-
NORTHWEST KANSAS

CITY           SKY/WX    TMP DP  RH WIND       PRES   REMARKS
GOODLAND       PTCLDY    83  63  50 SE16      29.89R
HAYS           PTCLDY    84  63  48 SE13      29.88S
HILL CITY      MOCLDY    87  63  44 SE12      29.87R
RUSSELL        CLEAR     83  64  52 SE10      29.87S
$$

KSZ061>065-074>080-084>089-050300-
SOUTHWEST KANSAS

CITY           SKY/WX    TMP DP  RH WIND       PRES   REMARKS
DODGE CITY     CLEAR     83  63  50 SE14      29.91R
ELKHART          N/A     83  59  44 S9          N/A
GARDEN CITY    PTCLDY    81  64  56 SE12      29.90R
GREAT BEND     CLEAR     82  64  54 SE10      29.89S
LIBERAL        MOCLDY    79  63  57 SE10      29.93R
PRATT          CLEAR     84  61  45 S10       29.92R
$$

KSZ066>073-081>083-090>101-050300-
SOUTHEAST KANSAS

CITY           SKY/WX    TMP DP  RH WIND       PRES   REMARKS
CHANUTE        CLEAR     78  67  68 E6        29.93R
COFFEYVILLE    PTCLDY    81  68  64 SE5       29.91R
HUTCHINSON     CLEAR     83  63  50 SE9       29.89S
MEDICINE LODGE   N/A     85  67  54 S8        29.88R
NEWTON         CLEAR     79  61  53 SE8       29.94S
PARSONS        PTCLDY    80  69  69 CALM      29.93S
WICHITA INTL   PTCLDY    84  64  50 SE10      29.89S
WICHITA JABRA  CLEAR     81  64  56 SE7       29.91R
WICHITA MCCONL CLEAR     83  65  54 SE9       29.91R
WINFIELD       CLEAR     82  66  58 SE7       29.92R
$$

KSZ007>012-019>026-033>040-048>060-102>105-050300-
NORTHEAST KANSAS

CITY           SKY/WX    TMP DP  RH WIND       PRES   REMARKS
CONCORDIA      CLEAR     77  63  61 SE8       29.90R
EMPORIA        CLEAR     77  63  61 SE7       29.92S
LAWRENCE       PTCLDY    71  66  84 SE3       29.94R
MANHATTAN      CLEAR     78  67  68 SE5       29.91R
MARYSVILLE     CLEAR     73  64  73 SE7       29.92S
OLATHE IND     PTCLDY    75  65  70 SE3       29.95S
OLATHE EXE     PTCLDY    75  64  68 E3        29.94S
SALINA         CLEAR     85  62  46 SE8       29.89R
TOPEKA BILLARD PTCLDY    75  65  70 SE6       29.93S
TOPEKA FORBES  PTCLDY    77  65  66 SE5       29.94R
$$


USA.gov is the U.S. government's official web portal to all federal, state and local government web resources and services.